Location: Long Geng
(2.6167°N, 114.1333°E)
Time: 01:39:09
(UTC+00:00)

Cosmos 2278 Rocket - Pass Details

Date: 14 May 2021
Orbit: 841 x 845 km, 71.0° (Epoch: 19 June)

Event Time Altitude Azimuth Distance (km) Brightness Sun altitude
Rises 12:34:12 0° 214° (SW) 3,394 5.5 -30.6°
Reaches altitude 10° 12:36:53 10° 224° (SW) 2,457 4.8 -31.2°
Maximum altitude 12:41:50 32° 286° (WNW) 1,401 3.8 -32.3°
Drops below altitude 10° 12:46:48 10° 348° (NNW) 2,448 5.0 -33.4°
Sets 12:49:29 0° 358° (N) 3,380 5.6 -34.1°
